Total_Precipitation_Accumulation
0.00 0.01 0.03 0.01 0.01 0.01 0.02 0.03 0.03 0.03 0.03 0.03 0.03 0.02 0.01 0.00 0.00 0.00 0.00 0.01 0.01 0.02 0.02 0.02 0.02 0.03 0.04 0.05 0.06 0.05 0.05 0.03 0.03 0.04 0.04 0.06 0.08 0.11 0.18 0.19 0.28 0.27 0.18
0.00 0.01 0.02 0.01 0.01 0.01 0.01 0.02 0.03 0.03 0.03 0.03 0.02 0.02 0.01 0.00 0.00 0.00 0.01 0.01 0.01 0.01 0.02 0.02 0.02 0.02 0.02 0.03 0.03 0.02 0.02 0.02 0.03 0.05 0.06 0.07 0.12 0.18 0.19 0.15 0.26 0.23 0.13
0.00 0.00 0.02 0.01 0.01 0.01 0.01 0.01 0.01 0.02 0.02 0.02 0.02 0.02 0.01 0.01 0.01 0.01 0.01 0.01 0.01 0.01 0.02 0.02 0.01 0.01 0.01 0.01 0.01 0.01 0.01 0.02 0.05 0.07 0.12 0.15 0.10 0.17 0.19 0.16 0.14 0.09 0.08
0.00 0.00 0.01 0.01 0.01 0.00 0.01 0.01 0.01 0.01 0.02 0.02 0.02 0.02 0.01 0.01 0.01 0.01 0.01 0.01 0.02 0.02 0.02 0.01 0.01 0.01 0.01 0.01 0.01 0.01 0.01 0.02 0.05 0.08 0.25 0.23 0.08 0.09 0.12 0.10 0.10 0.08 0.08
0.00 0.00 0.01 0.01 0.01 0.00 0.01 0.01 0.01 0.01 0.01 0.02 0.02 0.02 0.02 0.02 0.02 0.02 0.02 0.02 0.02 0.03 0.03 0.02 0.01 0.01 0.01 0.02 0.02 0.01 0.01 0.02 0.04 0.08 0.15 0.19 0.20 0.12 0.08 0.08 0.08 0.08 0.09
0.00 0.00 0.01 0.01 0.01 0.01 0.01 0.01 0.01 0.02 0.02 0.02 0.02 0.02 0.02 0.02 0.02 0.02 0.02 0.02 0.03 0.03 0.04 0.03 0.01 0.01 0.01 0.01 0.02 0.02 0.01 0.03 0.05 0.07 0.08 0.12 0.22 0.20 0.13 0.18 0.21 0.17 0.11
0.00 0.00 0.01 0.02 0.01 0.01 0.01 0.01 0.01 0.02 0.02 0.02 0.02 0.02 0.02 0.02 0.02 0.02 0.02 0.02 0.04 0.05 0.06 0.04 0.03 0.02 0.01 0.02 0.01 0.01 0.01 0.04 0.06 0.08 0.08 0.11 0.17 0.17 0.23 0.37 0.47 0.39 0.29
0.00 0.01 0.01 0.02 0.02 0.02 0.01 0.01 0.02 0.02 0.02 0.03 0.03 0.02 0.02 0.02 0.03 0.03 0.04 0.04 0.06 0.06 0.07 0.05 0.03 0.03 0.02 0.03 0.03 0.03 0.03 0.05 0.05 0.05 0.06 0.11 0.10 0.14 0.33 0.52 0.62 0.61 0.55
0.00 0.01 0.02 0.03 0.03 0.03 0.03 0.03 0.03 0.03 0.04 0.04 0.04 0.04 0.03 0.03 0.04 0.06 0.08 0.09 0.08 0.08 0.09 0.06 0.04 0.03 0.04 0.04 0.03 0.04 0.05 0.06 0.09 0.09 0.07 0.10 0.11 0.21 0.48 0.66 0.72 0.75 0.76
0.02 0.02 0.03 0.04 0.04 0.04 0.04 0.04 0.04 0.05 0.05 0.05 0.05 0.05 0.05 0.05 0.07 0.09 0.10 0.12 0.15 0.16 0.15 0.12 0.08 0.06 0.06 0.05 0.04 0.03 0.05 0.07 0.07 0.08 0.12 0.12 0.16 0.32 0.55 0.69 0.85 0.91 0.87
0.03 0.03 0.03 0.03 0.04 0.05 0.05 0.05 0.06 0.08 0.08 0.08 0.08 0.09 0.11 0.09 0.10 0.16 0.19 0.24 0.27 0.30 0.29 0.26 0.23 0.21 0.19 0.12 0.11 0.15 0.12 0.06 0.07 0.09 0.10 0.12 0.19 0.43 0.66 0.82 0.93 0.98 0.94
0.07 0.06 0.06 0.06 0.06 0.06 0.05 0.08 0.10 0.11 0.14 0.12 0.14 0.20 0.23 0.28 0.24 0.16 0.26 0.46 0.56 0.65 0.63 0.60 0.60 0.48 0.33 0.26 0.60 0.82 0.28 0.17 0.17 0.12 0.14 0.24 0.40 0.65 0.92 0.96 0.92 0.90 0.87
0.24 0.18 0.12 0.09 0.09 0.10 0.10 0.10 0.13 0.16 0.25 0.22 0.22 0.32 0.45 0.44 0.34 0.29 0.32 0.51 0.69 0.80 0.72 0.93 1.05 0.73 0.67 0.79 1.04 1.03 0.54 0.45 0.28 0.19 0.20 0.33 0.58 0.91 1.22 1.20 1.03 0.92 0.85
0.37 0.29 0.22 0.19 0.17 0.19 0.24 0.26 0.31 0.31 0.36 0.37 0.43 0.48 0.60 0.64 0.56 0.50 0.54 0.57 0.68 0.80 1.01 1.15 1.27 1.20 1.17 1.09 1.19 1.00 0.81 0.75 0.50 0.53 0.53 0.61 0.73 0.90 1.32 1.46 1.25 1.11 0.98
0.40 0.34 0.34 0.34 0.39 0.45 0.52 0.58 0.61 0.58 0.59 0.64 0.72 0.72 0.75 0.86 0.82 0.81 0.79 0.77 0.75 0.91 1.18 1.38 1.42 1.50 1.57 1.47 1.25 1.10 1.05 1.00 0.94 1.05 0.91 0.97 0.98 1.04 1.36 1.47 1.35 1.20 1.09
0.56 0.62 0.67 0.73 0.87 0.89 0.91 0.89 0.89 0.88 0.88 0.85 0.90 0.89 0.97 1.12 1.22 1.17 1.04 1.05 1.00 1.09 1.20 1.40 1.53 1.79 1.75 1.69 1.34 1.21 1.19 1.21 1.12 1.18 1.17 1.30 1.20 1.13 1.27 1.33 1.34 1.29 1.18
0.75 0.94 1.12 1.33 1.42 1.41 1.37 1.26 1.19 1.20 1.18 1.16 1.21 1.26 1.37 1.44 1.51 1.47 1.28 1.18 1.25 1.34 1.38 1.43 1.53 1.77 1.72 1.60 1.32 1.30 1.26 1.16 1.03 1.01 1.07 1.21 1.19 1.09 1.13 1.16 1.22 1.23 1.20
0.83 1.05 1.45 1.87 1.93 1.85 1.76 1.63 1.52 1.45 1.42 1.42 1.44 1.48 1.55 1.63 1.67 1.61 1.38 1.25 1.48 1.51 1.50 1.58 1.63 1.71 1.79 1.80 1.55 1.38 1.29 1.17 0.99 0.99 0.95 0.96 1.02 0.84 0.92 1.07 1.16 1.17 1.30
1.08 1.52 2.11 2.32 2.38 2.35 2.12 1.94 1.81 1.75 1.64 1.55 1.58 1.51 1.56 1.65 1.62 1.65 1.39 1.28 1.54 1.68 1.65 1.55 1.74 1.93 1.89 1.90 1.67 1.43 1.22 1.05 0.89 0.86 0.87 0.81 0.80 0.77 0.78 0.80 0.89 0.97 1.28
1.54 2.05 2.41 2.64 2.84 2.82 2.73 2.51 2.19 1.99 1.79 1.69 1.61 1.49 1.41 1.37 1.48 1.67 1.41 1.39 1.65 1.70 1.65 1.73 1.86 2.03 1.91 1.95 1.78 1.32 1.05 0.82 0.79 0.67 0.59 0.60 0.54 0.50 0.54 0.66 0.84 0.84 1.07
1.70 2.03 2.50 2.80 2.88 2.86 2.87 2.59 2.20 1.84 1.66 1.52 1.41 1.33 1.34 1.39 1.53 1.80 1.57 1.57 1.63 1.56 1.55 1.74 1.87 1.80 1.68 2.09 2.01 1.30 0.83 0.65 0.56 0.41 0.41 0.40 0.35 0.35 0.45 0.63 0.78 0.86 0.85
1.45 1.81 2.15 2.22 2.04 1.91 1.89 1.87 1.75 1.69 1.54 1.40 1.36 1.41 1.39 1.44 1.51 1.63 1.64 1.57 1.57 1.53 1.39 1.48 1.73 1.62 1.35 1.79 1.95 1.72 1.11 0.68 0.47 0.32 0.32 0.30 0.32 0.42 0.46 0.48 0.60 0.78 0.82
1.22 1.38 1.53 1.41 1.29 1.26 1.35 1.46 1.52 1.63 1.55 1.55 1.62 1.67 1.53 1.55 1.56 1.64 1.54 1.40 1.36 1.37 1.24 1.24 1.45 1.52 1.32 1.39 1.74 1.99 1.51 0.90 0.64 0.41 0.41 0.43 0.50 0.58 0.59 0.62 0.66 0.70 0.78
0.97 1.06 1.22 1.19 1.14 1.22 1.45 1.56 1.60 1.74 1.86 2.01 2.20 2.14 1.99 1.82 1.70 1.62 1.45 1.28 1.13 1.11 1.06 1.04 1.20 1.31 1.32 1.14 1.28 1.41 1.37 1.27 1.13 0.72 0.52 0.54 0.67 0.72 0.72 0.76 0.73 0.73 0.81
0.83 0.88 1.07 1.20 1.32 1.53 1.71 1.82 1.91 1.98 2.06 2.05 2.08 2.00 1.90 1.80 1.67 1.51 1.37 1.24 1.13 1.05 0.98 0.97 1.01 1.05 1.09 1.01 1.06 1.13 1.20 1.20 1.14 1.03 0.75 0.73 0.72 0.58 0.59 0.64 0.74 0.88 0.90
1.08 1.00 1.06 1.23 1.42 1.59 1.68 1.76 1.78 1.75 1.72 1.62 1.51 1.41 1.33 1.30 1.25 1.19 1.10 1.00 0.95 0.95 0.96 0.94 0.92 0.94 0.95 0.97 0.99 1.02 1.13 1.20 1.24 1.25 1.07 0.93 0.83 0.68 0.65 0.65 0.70 0.84 0.90